| time (UTC) | temp F | wind direction | speed MPH | gust MPH | rain 1hr in | rain 24hr in | rain mn in | humidity % | barometer mb |
| 20260906194539 | 73 | 60 | 3.0 | 0.0 | 0.00 | 0.00 | 0.00 | 70 | 1016.8 |
| 20260906193100 | 74 | 135 | 3.0 | 0.0 | 0.00 | 0.00 | 0.00 | 70 | 1016.9 |
| 20260906191610 | 74 | 139 | 4.0 | 0.0 | 0.00 | 0.00 | 0.00 | 69 | 1017.0 |
| 20260906190030 | 74 | 117 | 4.0 | 0.0 | 0.00 | 0.00 | 0.00 | 70 | 1017.1 |
| 20260906184536 | 75 | 127 | 4.0 | 0.0 | 0.00 | 0.00 | 0.00 | 68 | 1017.3 |
| 20260906183032 | 75 | 100 | 3.0 | 0.0 | 0.00 | 0.00 | 0.00 | 66 | 1017.3 |
| 20260906181548 | 75 | 142 | 4.0 | 0.0 | 0.00 | 0.00 | 0.00 | 66 | 1017.5 |
| 20260906180027 | 76 | 104 | 2.0 | 0.0 | 0.00 | 0.00 | 0.00 | 65 | 1017.5 |
| 20260906174521 | 75 | 110 | 2.0 | 0.0 | 0.00 | 0.00 | 0.00 | 67 | 1017.5 |
| 20260906173020 | 74 | 103 | 2.0 | 0.0 | 0.00 | 0.00 | 0.00 | 68 | 1017.6 |
| 20260906171513 | 73 | 150 | 3.0 | 0.0 | 0.00 | 0.00 | 0.00 | 68 | 1017.9 |
| 20260906170019 | 73 | 92 | 1.0 | 0.0 | 0.00 | 0.00 | 0.00 | 67 | 1018.2 |
| 20260906164512 | 73 | 96 | 2.0 | 0.0 | 0.00 | 0.00 | 0.00 | 69 | 1018.4 |
| 20260906163007 | 72 | 98 | 2.0 | 0.0 | 0.00 | 0.00 | 0.00 | 68 | 1018.4 |
| 20260906161509 | 72 | 130 | 3.0 | 0.0 | 0.00 | 0.00 | 0.00 | 70 | 1018.4 |
| 20260906160001 | 71 | 124 | 2.0 | 0.0 | 0.00 | 0.00 | 0.00 | 70 | 1018.4 |
| 20260906154559 | 71 | 126 | 1.0 | 0.0 | 0.00 | 0.00 | 0.00 | 71 | 1018.2 |
| 20260906153056 | 70 | 121 | 2.0 | 0.0 | 0.00 | 0.00 | 0.00 | 71 | 1018.3 |
| 20260906151550 | 69 | 115 | 2.0 | 0.0 | 0.00 | 0.00 | 0.00 | 75 | 1018.3 |
| 20260906150051 | 68 | 58 | 1.0 | 0.0 | 0.00 | 0.00 | 0.00 | 77 | 1018.2 |
| 20260906144544 | 67 | 48 | 1.0 | 0.0 | 0.00 | 0.00 | 0.00 | 79 | 1018.3 |
| 20260906143048 | 65 | 140 | 1.0 | 0.0 | 0.00 | 0.00 | 0.00 | 83 | 1018.5 |
| 20260906141505 | 64 | 140 | 1.0 | 0.0 | 0.00 | 0.00 | 0.00 | 85 | 1018.7 |
| 20260906140007 | 63 | 141 | 1.0 | 0.0 | 0.00 | 0.00 | 0.00 | 91 | 1018.4 |
| 20260906134605 | 61 | 140 | 2.0 | 0.0 | 0.00 | 0.00 | 0.00 | 94 | 1018.6 |
| 20260906133054 | 60 | 141 | 1.0 | 0.0 | 0.00 | 0.00 | 0.00 | 97 | 1018.8 |
| 20260906131548 | 58 | 141 | 0.0 | 0.0 | 0.00 | 0.00 | 0.00 | 98 | 1018.6 |
| 20260906130047 | 57 | 141 | 0.0 | 0.0 | 0.00 | 0.00 | 0.00 | 97 | 1018.6 |
| 20260906124539 | 56 | 141 | 0.0 | 0.0 | 0.00 | 0.00 | 0.00 | 97 | 1018.6 |
| 20260906123036 | 55 | 142 | 0.0 | 0.0 | 0.00 | 0.00 | 0.00 | 97 | 1018.6 |
| 20260906121534 | 54 | 142 | 0.0 | 0.0 | 0.00 | 0.00 | 0.00 | 97 | 1018.4 |
| 20260906120032 | 53 | 142 | 0.0 | 0.0 | 0.00 | 0.00 | 0.00 | 97 | 1018.1 |
| 20260906114507 | 53 | 141 | 0.0 | 0.0 | 0.00 | 0.00 | 0.00 | 96 | 1017.9 |
| 20260906113002 | 53 | 141 | 0.0 | 0.0 | 0.00 | 0.00 | 0.00 | 96 | 1017.7 |
| 20260906111600 | 53 | 141 | 0.0 | 0.0 | 0.00 | 0.00 | 0.00 | 97 | 1017.7 |
| 20260906110058 | 52 | 141 | 0.0 | 0.0 | 0.00 | 0.00 | 0.00 | 96 | 1017.4 |
| 20260906104558 | 52 | 142 | 0.0 | 0.0 | 0.00 | 0.00 | 0.00 | 96 | 1017.4 |
| 20260906103057 | 52 | 141 | 0.0 | 0.0 | 0.00 | 0.00 | 0.00 | 96 | 1017.3 |
| 20260906101601 | 52 | 141 | 0.0 | 0.0 | 0.00 | 0.00 | 0.00 | 96 | 1017.2 |
| 20260906100053 | 52 | 141 | 0.0 | 0.0 | 0.00 | 0.00 | 0.00 | 96 | 1017.1 |
| 20260906094554 | 52 | 141 | 0.0 | 0.0 | 0.00 | 0.00 | 0.00 | 96 | 1017.3 |
| 20260906093051 | 52 | 142 | 0.0 | 0.0 | 0.00 | 0.00 | 0.00 | 96 | 1017.4 |
| 20260906091550 | 52 | 142 | 0.0 | 0.0 | 0.00 | 0.00 | 0.00 | 95 | 1017.4 |
| 20260906090047 | 52 | 141 | 0.0 | 0.0 | 0.00 | 0.00 | 0.00 | 95 | 1017.4 |
| 20260906084545 | 53 | 141 | 0.0 | 0.0 | 0.00 | 0.00 | 0.00 | 95 | 1017.6 |
| 20260906083045 | 53 | 141 | 0.0 | 0.0 | 0.00 | 0.00 | 0.00 | 95 | 1017.5 |
| 20260906081543 | 53 | 141 | 0.0 | 0.0 | 0.00 | 0.00 | 0.00 | 95 | 1017.5 |
| 20260906080042 | 53 | 141 | 0.0 | 0.0 | 0.00 | 0.00 | 0.00 | 95 | 1017.3 |
| 20260906074544 | 53 | 141 | 0.0 | 0.0 | 0.00 | 0.00 | 0.00 | 95 | 1017.4 |
| 20260906073043 | 54 | 141 | 0.0 | 0.0 | 0.00 | 0.00 | 0.00 | 95 | 1017.5 |
| 20260906071506 | 54 | 141 | 0.0 | 0.0 | 0.00 | 0.00 | 0.00 | 94 | 1017.8 |
| 20260906070005 | 54 | 141 | 0.0 | 0.0 | 0.00 | 0.00 | 0.00 | 94 | 1017.9 |
| 20260906064505 | 54 | 141 | 0.0 | 0.0 | 0.00 | 0.00 | 0.00 | 94 | 1018.1 |
| 20260906063001 | 54 | 141 | 0.0 | 0.0 | 0.00 | 0.00 | 0.00 | 94 | 1017.9 |
| 20260906061600 | 54 | 141 | 0.0 | 0.0 | 0.00 | 0.00 | 0.00 | 94 | 1018.0 |
| 20260906060145 | 54 | 141 | 0.0 | 0.0 | 0.00 | 0.00 | 0.00 | 94 | 1018.1 |
| 20260906054559 | 54 | 141 | 0.0 | 0.0 | 0.00 | 0.00 | 0.00 | 94 | 1017.8 |
| 20260906053055 | 55 | 141 | 0.0 | 0.0 | 0.00 | 0.00 | 0.00 | 93 | 1017.9 |
| 20260906051554 | 55 | 141 | 0.0 | 0.0 | 0.00 | 0.00 | 0.00 | 93 | 1017.9 |
| 20260906050110 | 55 | 141 | 0.0 | 0.0 | 0.00 | 0.00 | 0.00 | 93 | 1017.5 |
| 20260906044552 | 55 | 141 | 0.0 | 0.0 | 0.00 | 0.00 | 0.00 | 93 | 1017.5 |
| 20260906043051 | 56 | 141 | 0.0 | 0.0 | 0.00 | 0.00 | 0.00 | 92 | 1017.4 |
| 20260906041551 | 56 | 141 | 0.0 | 0.0 | 0.00 | 0.00 | 0.00 | 91 | 1017.3 |
| 20260906040051 | 57 | 141 | 0.0 | 0.0 | 0.00 | 0.00 | 0.00 | 90 | 1017.3 |
| 20260906034557 | 58 | 141 | 0.0 | 0.0 | 0.00 | 0.00 | 0.00 | 89 | 1017.2 |
| 20260906033047 | 59 | 141 | 0.0 | 0.0 | 0.00 | 0.00 | 0.00 | 88 | 1017.1 |
| 20260906031609 | 60 | 141 | 0.0 | 0.0 | 0.00 | 0.00 | 0.00 | 87 | 1017.0 |
| 20260906030050 | 60 | 141 | 0.0 | 0.0 | 0.00 | 0.00 | 0.00 | 87 | 1016.8 |
| 20260906024554 | 60 | 141 | 0.0 | 0.0 | 0.00 | 0.00 | 0.00 | 87 | 1016.7 |
| 20260906023104 | 60 | 141 | 0.0 | 0.0 | 0.00 | 0.00 | 0.00 | 87 | 1016.8 |
| 20260906021544 | 60 | 141 | 0.0 | 0.0 | 0.00 | 0.00 | 0.00 | 87 | 1016.6 |
| 20260906020050 | 60 | 141 | 0.0 | 0.0 | 0.00 | 0.00 | 0.00 | 87 | 1016.6 |
| 20260906014543 | 60 | 141 | 0.0 | 0.0 | 0.00 | 0.00 | 0.00 | 87 | 1016.5 |
| 20260906013013 | 60 | 141 | 0.0 | 0.0 | 0.00 | 0.00 | 0.00 | 87 | 1016.4 |
| 20260906011512 | 60 | 141 | 0.0 | 0.0 | 0.00 | 0.00 | 0.00 | 87 | 1016.1 |
| 20260906010009 | 61 | 141 | 0.0 | 0.0 | 0.00 | 0.00 | 0.00 | 86 | 1016.1 |
| 20260906004509 | 62 | 141 | 0.0 | 0.0 | 0.00 | 0.00 | 0.00 | 84 | 1016.2 |
| 20260906003008 | 63 | 141 | 0.0 | 0.0 | 0.00 | 0.00 | 0.00 | 82 | 1015.9 |
| 20260906001508 | 64 | 140 | 0.0 | 0.0 | 0.00 | 0.00 | 0.00 | 80 | 1015.8 |
| 20260906000037 | 65 | 142 | 0.0 | 0.0 | 0.00 | 0.00 | 0.00 | 78 | 1016.0 |
| 20260905234536 | 66 | 143 | 1.0 | 0.0 | 0.00 | 0.00 | 0.00 | 77 | 1016.0 |
| 20260905233043 | 67 | 141 | 0.0 | 0.0 | 0.00 | 0.00 | 0.00 | 75 | 1016.1 |
| 20260905231537 | 68 | 144 | 1.0 | 0.0 | 0.00 | 0.00 | 0.00 | 75 | 1016.0 |
| 20260905230034 | 69 | 146 | 1.0 | 0.0 | 0.00 | 0.00 | 0.00 | 73 | 1016.4 |
| 20260905224533 | 69 | 146 | 1.0 | 0.0 | 0.00 | 0.00 | 0.00 | 69 | 1016.3 |
| 20260905223031 | 70 | 63 | 2.0 | 0.0 | 0.00 | 0.00 | 0.00 | 68 | 1016.4 |
| 20260905221530 | 70 | 58 | 2.0 | 0.0 | 0.00 | 0.00 | 0.00 | 67 | 1016.4 |
| 20260905220031 | 71 | 146 | 3.0 | 0.0 | 0.00 | 0.00 | 0.00 | 68 | 1016.5 |
| 20260905214529 | 71 | 145 | 3.0 | 0.0 | 0.00 | 0.00 | 0.00 | 68 | 1016.5 |
| 20260905213059 | 71 | 145 | 1.0 | 0.0 | 0.00 | 0.00 | 0.00 | 68 | 1016.7 |
| 20260905211559 | 71 | 145 | 4.0 | 0.0 | 0.00 | 0.00 | 0.00 | 68 | 1016.5 |
| 20260905210106 | 71 | 142 | 3.0 | 0.0 | 0.00 | 0.00 | 0.00 | 67 | 1016.6 |
| 20260905204556 | 71 | 108 | 3.0 | 0.0 | 0.00 | 0.00 | 0.00 | 67 | 1016.6 |
| 20260905203058 | 72 | 104 | 2.0 | 0.0 | 0.00 | 0.00 | 0.00 | 67 | 1016.6 |
| 20260905201554 | 72 | 98 | 1.0 | 0.0 | 0.00 | 0.00 | 0.00 | 66 | 1016.8 |
| 20260905200100 | 71 | 92 | 1.0 | 0.0 | 0.00 | 0.00 | 0.00 | 67 | 1017.0 |